Hourly Weather Roundup
Issued by NWS Central Illinois

Home | Current Version | Previous Version | Text Only | Print | Product List | Glossary On
Versions: 1 2 3 4 5 6 7 8 9 10 11 12 13 14 15 16 17 18 19 20 21 22 23 24 25 26 27 28 29 30 31 32 33 34 35 36 37 38 39 40 41 42 43 44 45 46 47 48 49 50
000
NZUS43 KILX 250510
HWRILX

AREA WEATHER ROUNDUP
NATIONAL WEATHER SERVICE, LINCOLN IL
1100 PM CST WED DEC 24 2014


CITY           SKY/WX    TMP DP  RH WIND       PRES   REMARKS
BLOOMINGTON    CLOUDY    36  34  92 W13       29.73R WCI  27
CHAMPAIGN      CLOUDY    36  34  92 W17       29.74R FOG     WCI  26
DECATUR        CLOUDY    37  31  78 W15G23    29.78R WCI  28
FLORA          MOCLDY    37  35  90 W13       29.84R WCI  29
GALESBURG      CLOUDY    34  31  89 W10       29.75R WCI  26
JACKSONVILLE   CLOUDY    37  32  81 W8        29.80S WCI  31
LACON          CLOUDY    36  31  83 W14       29.72R WCI  27
LAWRENCEVILLE  CLOUDY    38  35  89 W14       29.82R WCI  30
LITCHFIELD     CLOUDY    36  31  82 W10       29.82R WCI  28
$$


CITY           SKY/WX    TMP DP  RH WIND       PRES   REMARKS
LINCOLN        CLOUDY    38  32  78 W5        29.77R WCI  35
MACOMB         CLOUDY    35  32  88 W13       29.79R WCI  26
MATTOON        CLOUDY    36  34  92 W10       29.78R WCI  28
MT CARMEL AP   CLOUDY    41  34  75 W13       29.83R WCI  34
OLNEY-NOBLE AP CLOUDY    36  34  93 W8        29.84R WCI  29
PARIS          CLOUDY    37  36  96 W14       29.77R FOG     WCI  28
PEORIA         CLOUDY    37  30  75 W14G21    29.75R WCI  28
PONTIAC        CLOUDY    37  35  91 W14G20    29.71R WCI  28
RANTOUL        CLOUDY    38  36  92 W15       29.72R WCI  29
ROBINSON       CLOUDY    37  35  92 W15G24    29.82R WCI  28
SPRINGFIELD    CLOUDY    37  32  82 W12       29.79R WCI  29
TAYLORVILLE    CLOUDY    36  32  87 W9        29.80R WCI  29
$$

...REGIONAL REPORTS...


CITY           SKY/WX    TMP DP  RH WIND       PRES   REMARKS
CHICAGO O`HARE CLOUDY    36  32  85 W16G24    29.61R WCI  26
KANKAKEE       CLOUDY    36  34  92 W12       29.68R WCI  28
MOLINE         CLOUDY    35  29  78 W13       29.73R WCI  26
MOUNT VERNON   CLOUDY    37  32  81 W10       29.87R WCI  30
PITTSFIELD     CLOUDY    37  31  79 W7        29.82R WCI  31
QUINCY         CLOUDY    35  29  78 W10       29.80R WCI  27
ROCKFORD       CLOUDY    36  31  82 W9        29.66R WCI  29
$$


CITY           SKY/WX    TMP DP  RH WIND       PRES   REMARKS
BURLINGTON     CLOUDY    35  30  82 W8        29.77R WCI  29
CEDAR RAPIDS   CLOUDY    32  30  92 W10       29.71R WCI  24
DES MOINES     CLOUDY    32  27  81 W15       29.74S WCI  22
KIRKSVILLE     CLOUDY    33  30  88 SW12G20   29.80R WCI  24
OTTUMWA        CLOUDY    32  28  85 W13       29.76R WCI  22
ST LOUIS       CLOUDY    38  33  82 W7        29.86R WCI  33
$$


CITY           SKY/WX    TMP DP  RH WIND       PRES   REMARKS
TERRE HAUTE    CLOUDY    37  33  85 W12       29.76R WCI  29
EVANSVILLE     CLOUDY    40  34  79 W10       29.86R WCI  33
INDIANAPOLIS   DRIZZLE   34  32  92 W18       29.71R WCI  23
LAFAYETTE      CLOUDY    35  33  92 W13G22    29.69R WCI  26
MADISON        CLOUDY    35  30  82 W7        29.60R WCI  29
MILWAUKEE      CLOUDY    36  30  79 W10G24    29.56R WCI  28
$$




USA.gov is the U.S. government's official web portal to all federal, state and local government web resources and services.